Location: Fort Wayne
(41.1310°N, 85.1290°W)
Time: 02:15:35
(UTC-04:00)

Cosmos 1980 - Visible Passes

Search period start: 23 March 2017 00:00
Search period end: 02 April 2017 00:00
Orbit: 841 x 846 km, 71.0° (Epoch: 21 March)

Date Brightness Start Highest point End Pass type
(mag) Time Alt. Az. Time Alt. Az. Time Alt. Az.
23 Mar 5.0 06:22:22 10° S 06:27:37 41° ESE 06:32:53 10° NE visible
24 Mar 5.0 06:07:53 10° S 06:13:06 39° ESE 06:18:19 10° NE visible
25 Mar 5.1 05:53:25 10° S 05:58:34 37° ESE 06:03:43 10° NE visible
26 Mar 5.1 05:38:57 10° S 05:44:02 36° ESE 05:49:08 10° NE visible
27 Mar 5.1 05:24:29 10° SSE 05:29:30 34° ESE 05:34:33 10° NE visible
28 Mar 5.2 05:10:50 14° SSE 05:14:58 33° ESE 05:19:58 10° NE visible
28 Mar 4.4 06:53:49 10° SW 06:58:58 36° WNW 07:04:09 10° N visible
29 Mar 5.2 04:57:21 19° SSE 05:00:27 31° ESE 05:05:22 10° NE visible
29 Mar 4.3 06:39:14 10° SW 06:44:24 37° WNW 06:49:39 10° N visible
30 Mar 5.2 04:43:44 23° SE 04:45:56 30° ESE 04:50:46 10° NE visible
30 Mar 4.3 06:25:37 15° WSW 06:29:50 39° WNW 06:35:07 10° N visible
31 Mar 5.2 04:30:01 26° SE 04:31:24 29° ESE 04:36:10 10° NE visible
31 Mar 4.2 06:11:53 20° WSW 06:15:17 40° WNW 06:20:36 10° N visible
01 Apr 5.2 04:16:12 27° ESE 04:16:53 27° ESE 04:21:34 10° NE visible
01 Apr 4.2 05:58:04 26° WSW 06:00:43 42° WNW 06:06:05 10° N visible
